This demonstration page uses our WeatherBlox Daily Observations layout. Learn more.

Left ArrowRight Arrow

38.83388, -104.82136

Hourly Observations for May 3, 2022

Temp ( °F °C ) Dew Point ( °F °C ) Humidity (%) Winds ( mph kmh ) Pressure ( in mb ) Visibility ( mi km ) Precip ( " mm )
12:03 am 00:03 Mostly Cloudy 32 0 30 -1 93 93 SSE 6 9 29.66 1005 10 16 0.00 0.00
12:13 am 00:13 Mostly Cloudy 32 0 30 -1 93 93 SSE 7 11 29.66 1005 10 16 0.00 0.00
12:28 am 00:28 Cloudy 32 0 30 -1 93 93 SSE 6 9 29.67 1005 10 16 0.00 0.00
12:53 am 00:53 Cloudy 32 0 30 -1 93 93 SSE 8 13 29.67 1005 10 16 0.00 0.00
12:58 am 00:58 Cloudy 32 0.1 31 -0.5 96 96 SE 7 11 29.67 1005 10 16 0.00 0.00
1:38 am 01:38 Cloudy 32 0 32 0 100 100 SSE 6 9 29.67 1005 10 16 0.00 0.00
1:58 am 01:58 Cloudy 32 -0.1 32 -0.1 100 100 Calm 29.67 1005 10 16 0.00 0.00
2:18 am 02:18 Cloudy 32 0 32 0 100 100 SSE 6 9 29.64 1004 10 16 0.00 0.00
2:48 am 02:48 Cloudy 30 -1 30 -1 100 100 SSE 3 6 29.65 1004 10 16 0.00 0.00
2:58 am 02:58 Cloudy 31 -0.7 31 -0.7 100 100 S 3 6 29.65 1004 10 16 0.00 0.00
3:58 am 03:58 Cloudy 31 -0.8 31 -0.8 100 100 Calm 29.65 1004 8 13 0.00 0.00
4:43 am 04:43 Cloudy with Mist and Fog 30 -1 30 -1 100 100 SSE 5 7 29.64 1004 1 1 0.00 0.00
4:58 am 04:58 Mostly Cloudy with Freezing Fog 30 -1.2 30 -1.2 100 100 Calm 29.64 1004 3 5 0.00 0.00
5:58 am 05:58 Mostly Cloudy with Mist and Fog 30 -1.3 30 -1.3 100 100 Calm 29.65 1004 6 10 0.00 0.00
6:13 am 06:13 Mostly Cloudy with Freezing Fog 28 -2 28 -2 100 100 SE 5 7 29.99 1015 0 0 0.00 0.00
6:58 am 06:58 undefined 29 -1.7 29 -1.7 100 100 Calm 29.66 1004 N/A 0.00 0.00
7:35 am 07:35 Partly Cloudy with Freezing Fog 30 -1 30 -1 100 100 Calm 29.68 1005 1 1 0.00 0.00
7:50 am 07:50 Mostly Cloudy with Mist and Fog 30 -1 30 -1 100 100 E 3 6 29.69 1005 5 8 0.00 0.00
7:58 am 07:58 Mostly Cloudy with Freezing Fog 30 -0.9 30 -0.9 100 100 ESE 5 7 29.69 1005 5 8 0.00 0.00
8:28 am 08:28 Cloudy with Mist and Fog 32 0 32 0 100 100 SE 12 19 29.69 1005 6 10 0.00 0.00
8:58 am 08:58 Cloudy 34 0.9 34 0.9 100 100 SE 9 15 29.70 1006 10 16 0.00 0.00
9:23 am 09:23 Partly Cloudy 37 3 37 3 100 100 SE 15 24 29.69 1006 10 16 0.00 0.00
9:28 am 09:28 Mostly Cloudy 37 3 37 3 100 100 SE 14 22 29.93 1014 10 16 0.00 0.00
9:33 am 09:33 Partly Cloudy 37 3 37 3 100 100 SSE 13 20 29.70 1006 10 16 0.00 0.00
9:58 am 09:58 Partly Cloudy 38 3.6 33 0.3 79 79 ESE 10 17 29.70 1006 10 16 0.00 0.00
10:58 am 10:58 Sunny 43 6.3 32 -0.2 63 63 ESE 12 19 29.71 1006 10 16 0.00 0.00
11:58 am 11:58 Sunny 48 8.7 31 -0.4 53 53 SSE 20 31 29.69 1005 10 16 0.00 0.00
12:58 pm 12:58 Sunny 49 9.3 31 -0.6 50 50 SSE 25 41 29.68 1005 10 16 0.00 0.00
1:58 pm 13:58 Sunny 50 10.1 31 -0.4 48 48 SSE 25 41 29.67 1005 10 16 0.00 0.00
2:58 pm 14:58 Sunny 51 10.4 31 -0.7 46 46 SE 20 31 29.68 1005 10 16 0.00 0.00
3:58 pm 15:58 Sunny 51 10.5 31 -0.6 46 46 SSE 14 22 29.67 1005 10 16 0.00 0.00
4:58 pm 16:58 Sunny 51 10.4 31 -0.7 46 46 S 14 22 29.67 1005 10 16 0.00 0.00
5:58 pm 17:58 Sunny 53 11.5 31 -0.7 43 43 SSW 12 19 29.64 1004 10 16 0.00 0.00
6:58 pm 18:58 Mostly Cloudy 53 11.9 30 -0.9 41 41 W 5 7 29.62 1003 10 16 0.00 0.00
7:58 pm 19:58 Mostly Cloudy 54 12.3 30 -1.3 39 39 NW 13 20 29.61 1003 10 16 0.00 0.00
8:58 pm 20:58 Cloudy 53 11.7 31 -0.8 42 42 NW 9 15 29.58 1002 10 16 0.00 0.00
9:58 pm 21:58 Cloudy 51 10.7 31 -0.8 45 45 NNE 5 7 29.70 1006 10 16 0.00 0.00
10:58 pm 22:58 Cloudy 50 9.9 31 -0.6 48 48 N 7 11 29.58 1002 10 16 0.00 0.00
11:58 pm 23:58 Mostly Cloudy 46 8 33 0.7 60 60 NNW 8 13 29.56 1001 10 16 0.00 0.00

Powered by AerisWeather